www.pogodaiklimat.ru

Погода и климат >> Архив погоды >> Индонезия >> Уджангпанданг


ПОГОДА в Уджангпанданге

  • Прогноз погоды в Уджангпанданге
  • Монитор погоды в Уджангпанданге

АРХИВ ПОГОДЫ в Уджангпанданге

Время (UTC), дата Ветер
(напр.,м/с)
 
Видим.   Явления Облачность Т
(С)
Тd
(С)
f
(%)
Тe
(С)
Тes
(С)
Комфортность P
(гПа)
Po
(гПа)
Тmin
(С)
Tmax
(С)
R
(мм)
R24
(мм)
S
(см)
18 11.09 штиль 0 10 км 1/0
[Ac trans]
+24.9 +20.8 78 +31 +31 очень
душно
1013.0 1012.8
21 11.09 В 2 10 км 1/0
[Cc]
+23.9 +21.0 84 +30 +30 очень
душно
1013.2 1013.0
00 12.09 СВ 3 18 км 1/0
[Cs]
+27.1 +18.0 58 +32 +36 очень
душно
1014.5 1014.3 +22.9
03 12.09 ЮЗ 4 18 км 4/1
[Cu hum Ac trans Cs]
+29.7 +22.0 63 +38 +49 очень
душно
1014.0 1013.8
06 12.09 З 5 18 км 4/1
[Cu hum Ac trans Cs]
+29.1 +22.8 69 +39 +46 очень
душно
1011.4 1011.2
09 12.09 ЮЗ 3 18 км 1/0
[Ac trans Cs]
+29.0 +24.1 75 +40 +42 очень
душно
1010.4 1010.2 0.0
12 12.09 СВ 1 10 км 1/0
[Ac trans Cs]
+27.6 +24.4 83 +39 +39 очень
душно
1012.4 1012.2 +30.7
15 12.09 В 2 10 км 1/0
[Ac trans Cs]
+26.0 +19.3 67 +31 +31 очень
душно
1013.2 1013.0 0.0
18 12.09 ЮВ 1 10 км 1/0
[Ac trans Cs]
+24.3 +15.9 59 +27 +27 жарко 1012.2 1012.0
21 12.09 ЮВ 2 10 км 1/0
[Ac trans Cs]
+23.4 +17.6 70 +29 +29 душно 1012.7 1012.5
00 13.09 СВ 2 18 км 1/0
[Cs]
+26.7 +21.1 71 +34 +39 очень
душно
1013.9 1013.7 +22.6
03 13.09 З 4 18 км 4/0
[Ac trans Cs]
+29.8 +22.5 65 +39 +51 опасность
солнечного
удара
1013.5 1013.3
06 13.09 З 4 18 км 4/0
[Ac trans Cs]
+29.4 +23.0 68 +39 +50 очень
душно
1010.3 1010.1
09 13.09 З 3 18 км 3/0
[Ac trans Cs]
+28.5 +25.1 82 +41 +43 опасность
перегрева
1009.6 1009.3
12 13.09 С 2 10 км 3/0
[Ac trans Cs]
+27.3 +25.3 89 +40 +40 очень
душно
1011.4 1011.2 +31.2
15 13.09 штиль 0 10 км 3/0
[Ac trans Cs]
+25.6 +21.5 78 +33 +33 очень
душно
1012.8 1012.5
18 13.09 штиль 0 10 км 4/1
[Cu hum Ac trans Cs]
+24.6 +22.3 87 +32 +32 очень
душно
1012.0 1011.8
21 13.09 ЮВ 1 10 км 4/1
[Cu hum Ac trans Cs]
+23.0 +18.9 78 +29 +29 очень
душно
1012.3 1012.1
00 14.09 СВ 1 18 км 3/0
[Ac trans Cs]
+25.4 +23.6 90 +35 +40 очень
душно
1013.7 1013.4 +22.9
03 14.09 З 3 18 км 4/0
[Cs]
+29.4 +22.7 67 +39 +56 опасность
солнечного
удара
1012.8 1012.6
06 14.09 ЮЗ 4 18 км 4/0
[Cs]
+30.6 +22.6 62 +40 +51 опасность
солнечного
удара
1009.8 1009.6
09 14.09 З 2 18 км 4/0
[Cs]
+29.6 +25.3 78 +43 +45 опасность
перегрева
1009.5 1009.2
12 14.09 СВ 1 12 км 4/0
[Cs]
+28.0 +23.9 78 +39 +39 очень
душно
1011.6 1011.4 +31.4
15 14.09 Ю 1 12 км 4/0
[Cs]
+26.2 +21.2 74 +33 +33 очень
душно
1012.1 1011.9
18 14.09 штиль 0 12 км 4/0
[Cs]
+24.8 +21.1 80 +31 +31 очень
душно
1011.0 1010.8
21 14.09 ЮВ 1 12 км 4/0
[Cs]
+23.4 +20.0 81 +30 +30 очень
душно
1011.0 1010.8
00 15.09 З 1 18 км 3/0
[Cs]
+26.6 +21.8 75 +34 +40 очень
душно
1012.7 1012.5 +23.2
03 15.09 ЮЗ 3 18 км 3/1
[Cu hum Cs]
+31.0 +23.8 66 +43 +57 опасность
перегрева
1011.4 1011.2
06 15.09 З 4 18 км 3/1
[Cu hum Cs]
+30.2 +25.1 74 +44 +54 опасность
перегрева
1008.7 1008.5
09 15.09 СЗ 2 18 км 3/1 600 м
[Sc As trans Cs]
+30.6 +26.2 77 +46 +47 опасность
перегрева
1008.1 1007.9
12 15.09 СВ 5 10 км 3/0
[As trans Cs]
+28.8 +21.9 66 +37 +37 очень
душно
1010.5 1010.3 +31.9
15 15.09 Ю 2 10 км 1/0
[As trans Cs]
+27.4 +21.1 69 +35 +35 очень
душно
1011.0 1010.8
18 15.09 В 1 10 км 1/0
[As trans Cs]
+25.4 +21.2 78 +32 +32 очень
душно
1010.3 1010.1
21 15.09 ЮВ 2 10 км 1/0
[As trans Cs]
+24.1 +22.8 92 +32 +32 очень
душно
1010.4 1010.2
00 16.09 В 2 18 км 1/0
[As trans Cs]
+28.0 +26.5 92 +43 +48 опасность
перегрева
1011.7 1011.5 +24.1
03 16.09 З 4 18 км 3/1
[Cu hum As trans Cs]
+30.4 +24.6 71 +43 +55 опасность
перегрева
1010.9 1010.7
06 16.09 ЮЗ 3 18 км 3/0
[Ac trans Cs]
+31.5 +24.3 66 +44 +56 опасность
перегрева
1008.7 1008.5
09 16.09 ЮЗ 3 18 км 4/0
[Ci fib]
+28.4 +24.5 79 +40 +41 очень
душно
1008.1 1007.9 0.0
12 16.09 С 1 10 км 4/0
[Ci fib]
+26.7 +25.1 91 +38 +38 очень
душно
1010.0 1009.8 +31.5
15 16.09 В 1 10 км 4/0
[Ci fib]
+26.2 +24.4 90 +37 +37 очень
душно
1011.1 1010.9 0.0
18 16.09 В 1 10 км 4/0
[Ci fib]
+25.3 +23.7 91 +34 +34 очень
душно
1010.7 1010.5
21 16.09 ЮВ 1 10 км 4/0
[Ci fib]
+24.0 +21.2 84 +30 +30 очень
душно
1011.4 1011.2
00 17.09 В 2 18 км 4/0
[Ac trans Ci fib]
+27.0 +22.4 76 +35 +41 очень
душно
1013.2 1013.0 +24.2
03 17.09 ЮЗ 4 18 км 4/1
[Cu hum Ac trans Ci fib]
+30.8 +25.6 74 +45 +57 опасность
перегрева
1012.5 1012.2
06 17.09 ЮЗ 4 18 км 5/1
[Cu hum Ac trans Ci fib]
+30.9 +26.9 79 +48 +57 опасность
перегрева
1009.3 1009.1
09 17.09 З 2 18 км 6/3
[Cu hum Ac trans Ci fib]
+31.0 +24.9 70 +44 +45 опасность
перегрева
1009.1 1008.9
12 17.09 С 2 10 км 4/0
[Ci fib]
+28.4 +26.6 90 +44 +44 опасность
перегрева
1011.0 1010.8 +32.6
15 17.09 штиль 0 10 км 4/0
[Ci fib]
+27.2 +24.0 83 +38 +38 очень
душно
1012.3 1012.1
18 17.09 З 1 10 км 4/0
[Ci fib]
+26.0 +23.9 88 +36 +36 очень
душно
1011.4 1011.2
21 17.09 ЮВ 1 10 км 4/0
[Ci fib]
+25.0 +23.0 89 +33 +33 очень
душно
1012.2 1012.0
00 18.09 С 1 10 км 4/0
[Cs]
+27.5 +22.6 75 +36 +42 очень
душно
1013.6 1013.4 +25.0
03 18.09 ЮЗ 5 18 км 4/3
[Cu hum Cs]
+31.0 +24.9 70 +44 +52 опасность
перегрева
1012.4 1012.2
06 18.09 З 4 18 км 4/3
[Cu hum Cs]
+30.4 +26.1 78 +46 +53 опасность
перегрева
1009.5 1009.2
09 18.09 З 2 14 км 8/3
[Cu hum Ac As Ci fib]
+30.2 +26.6 81 +47 +47 опасность
перегрева
1009.4 1009.2
12 18.09 СВ 3 10 км 5/3
[Cu Sc Ac trans Ci fib]
+29.1 +24.5 76 +41 +41 опасность
перегрева
1011.5 1011.3 +32.1
15 18.09 штиль 0 10 км 5/3
[Cu Sc Ac trans Ci fib]
+27.4 +24.5 84 +39 +39 очень
душно
1012.5 1012.3

 

Местоположение метеостанции Уджангпанданг (Индонезия): широта -5.07 долгота 119.55 высота над уровнем моря 14 м.

В архиве по умолчанию представлена погода в Уджангпанданге за последнюю неделю. Архивные данные за месяц целиком и за предыдущие месяцы, начиная с января 2011 года, Вы можете получить, выбрав интересующий диапазон дат из раскрывающегося списка и нажав кнопку "Ввод!".


*Определитесь, кто Вы:
робот инопланетянин человек

Внимание! Время в таблицах - всемирное. Для получения местного времени необходимо прибавить поправку, которая равна 8 ч.

Смотрите также архив погоды в соседних городах и на ближайших метеорологических станциях:

Погода в Колаке (Индонезия) (236 км)
Погода в Маджене (Индонезия) (292 км)
Погода в Масамбе (Индонезия) (294 км)
Погода в Кендари (Индонезия) (337 км)
Погода в Бау-Бау (Индонезия) (342 км)
Погода в Биме (Индонезия) (398 км)
Погода в Рутенге (Индонезия) (408 км)
Погода в Котабару (Индонезия) (414 км)
Погода в Посо (Индонезия) (431 км)
Погода в Сумбава-Бесаре (Индонезия) (448 км)

Пояснения к столбцам:

Ветер - указаны скорость ветра в м/с - средняя за 10 мин, порывы в срок и между сроками (в фигурных скобках) и направление, откуда дует ветер: С - северный, СВ - северо-восточный, В - восточный, ЮВ - юго-восточный, Ю - южный, ЮЗ - юго-западный, З - западный, СЗ - северо-западный.
Видимость - горизонтальная дальность видимости в метрах или километрах. При видимости от 1 до 10 км при отсутствии осадков обычно наблюдается дымка, при ухудшении видимости до 1 км и менее - туман. В сухую погоду видимость может ухудшаться дымом, пылью или мглою.
Явления - указаны атмосферные явления, наблюдавшиеся в срок или в последний час перед сроком; фигурными скобками обозначены явления, наблюдавшиеся между сроками (за 1-3 часа до срока); квадратными скобками обозначены град или гололедные отложения с указанием их диаметра в мм.
Облачность - указаны через наклонную черту общая и нижняя облачность в баллах и высота нижней границы облаков в метрах; квадратными скобками обозначены формы облаков: Ci - перистые, Cs - перисто-слоистые, Cc - перисто-кучевые, Ac - высококучевые, As - высокослоистые, Sc - слоисто-кучевые, Ns - слоисто-дождевые, Cu - кучевые, Cb - кучево-дождевые. Подробнее классификацию облаков см. в Атласе облаков (PDF).
T - Температура воздуха - температура, измеренная на высоте 2 м над землей.
Td - Температура точки росы - температура, при понижении до которой содержащийся в воздухе водяной пар достигнет насыщения.
f - Относительная влажность воздуха - влажноcть воздуха, измеренная на высоте 2 м над землей.
Te - Эффективная температура - температура, которую ощущает одетый по сезону человек в тени. Характеристика душности погоды. При расчете учитывается влияние влажности воздуха и скорости ветра на теплоощущения человека.
Tes - Эффективная температура на солнце - температура, которую ощущает человек, с поправкой на солнечный нагрев. Характеристика знойности погоды. Зависит от высоты солнца над горизонтом, облачности и скорости ветра. Ночью, в пасмурную погоду, а также при ветре 12 м/с и более поправка равна нулю.
P - Атмосферное давление - приведенное к уровню моря атмосферное давление.
Po - Атмосферное давление - измеренное на уровне метеостанции атмосферное давление.
Tmin - Минимальная температура - минимум температуры воздуха на высоте 2 м над землей.
Tmax - Максимальная температура - максимум температуры воздуха на высоте 2 м над землей.
R - Количество осадков - Количество выпавших осадков за период времени, мм. При наведении курсора мыши на число - период времени, за который выпало указанное количество осадков.
R24 - Количество осадков - Количество выпавших осадков за 24 часа, мм.
S - Снежный покров - Высота снежного покрова, см. При наведении курсора мыши на число - состояние снежного покрова и степень покрытия местности в баллах.